Location: Finch Observatory
(42.1604°N, 72.0115°W)
Time: 19:32:40
(UTC-05:00)

OTV 5 (USA 277) - Visible Passes

Search period start: 21 January 2018 00:00
Search period end: 31 January 2018 00:00
Orbit: 404 x 417 km, 43.0° (Epoch: 07 September)

Date Brightness Start Highest point End Pass type
(mag) Time Alt. Az. Time Alt. Az. Time Alt. Az.
22 Jan ? 18:42:49 10° SW 18:44:58 26° S 18:44:58 26° S visible
23 Jan ? 17:52:16 10° SSW 17:54:52 21° SSE 17:56:29 15° ESE visible
23 Jan ? 19:28:30 10° WSW 19:29:15 16° WSW 19:29:15 16° WSW visible
24 Jan ? 18:37:31 10° WSW 18:40:43 57° S 18:40:43 57° S visible
25 Jan ? 17:46:36 10° SW 17:49:48 41° SSE 17:52:08 16° E visible
25 Jan ? 19:23:40 10° W 19:24:54 21° W 19:24:54 21° W visible
26 Jan ? 18:32:35 10° W 18:35:57 90° NNE 18:36:18 70° E visible
27 Jan ? 17:41:31 10° WSW 17:44:53 75° SSE 17:47:40 14° E visible
27 Jan ? 19:18:53 10° W 19:20:26 25° W 19:20:26 25° W visible
28 Jan ? 18:27:47 10° W 18:31:10 75° N 18:31:49 54° ENE visible
29 Jan ? 17:36:41 10° W 17:40:04 79° N 17:43:12 12° E visible
29 Jan ? 19:14:05 10° W 19:15:58 30° W 19:15:58 30° W visible
30 Jan ? 18:23:00 10° W 18:26:23 81° N 18:27:23 42° E visible
